STARLINK-34534

Last updated on Fri Aug 08 2025 00:02:05 GMT+0000 (Coordinated Universal Time)

1 64763U 25147J 25218.91668981 -.01868076 00000+0 -48239-1 0 9995 2 64763 53.1596 163.1725 0001050 101.9765 102.8342 15.41880404 5939
UTC large
Height (km)
Speed (km/s)
/
Latitude / Longitude
Inclination (degrees)
Orbital Period (minutes)
Azimuth
Elevation
Range (km)
Doppler Factor

Next 0 passes for location: London (51.5072 / 0.1276)

Sorry there are no passes over London.